User: anonymous   Login
Location: Iesi
(43.5167°N, 13.2333°E)
Time: 07:49:52
(UTC+00:00)
Language:

Cosmos 468 Rocket - Orbit

View from above orbital plane
View from above orbital plane
View from above satellite
View from above satellite

Ground track
Ground track

The orbit data is extracted from the following two-line orbital elements,

1  5707U 71114B   20299.81835499  .00000069  00000-0  30790-4 0  9990
2  5707  74.0280 342.9730 0023473 110.5596 249.8080 14.38912241559214
Epoch (UTC): 25 October 2020 19:38:25
Eccentricity: 0.0023473
inclination: 74.0280°
perigee height: 745 km
apogee height: 779 km
right ascension of ascending node: 342.9730°
argument of perigee: 110.5596°
revolutions per day: 14.38912241
mean anomaly at epoch: 249.8080°
orbit number at epoch: 55921

The dashed part of the orbit path shows where the satellite is in the earth's shadow,  

DLR